Time,TemperatureF,DewpointF,PressureIn,WindDirection,WindDirectionDegrees,WindSpeedMPH,WindSpeedGustMPH,Humidity,HourlyPrecipIn,Conditions,Clouds,dailyrainin,SoftwareType,DateUTC
2013-01-18 00:04:00,23.5,18.5,30.38,NW,306,5.8,5.8,81,0.00,CLR,,0.00,WeatherDisplay:10.37,2013-01-18 06:04:00,
2013-01-18 00:09:00,23.5,18.8,30.38,NW,306,4.6,4.6,82,0.00,CLR,,0.00,WeatherDisplay:10.37,2013-01-18 06:09:00,
2013-01-18 00:14:00,23.4,18.7,30.38,NW,304,3.5,3.5,82,0.00,CLR,,0.00,WeatherDisplay:10.37,2013-01-18 06:14:00,
2013-01-18 00:19:00,23.3,18.6,30.39,NW,304,3.5,3.5,82,0.00,CLR,,0.00,WeatherDisplay:10.37,2013-01-18 06:19:00,
2013-01-18 00:24:00,23.2,18.5,30.39,WNW,297,5.8,5.8,82,0.00,CLR,,0.00,WeatherDisplay:10.37,2013-01-18 06:24:00,
2013-01-18 00:29:00,23.0,18.6,30.39,WNW,292,3.5,3.5,83,0.00,CLR,,0.00,WeatherDisplay:10.37,2013-01-18 06:29:00,
2013-01-18 00:34:00,22.9,18.8,30.39,WNW,292,3.5,3.5,84,0.00,CLR,,0.00,WeatherDisplay:10.37,2013-01-18 06:34:00,
2013-01-18 00:39:00,22.8,18.7,30.39,WNW,292,2.3,2.3,84,0.00,CLR,,0.00,WeatherDisplay:10.37,2013-01-18 06:39:00,
2013-01-18 00:44:00,22.7,18.6,30.39,WNW,292,2.3,2.3,84,0.00,CLR,,0.00,WeatherDisplay:10.37,2013-01-18 06:44:00,
2013-01-18 00:49:00,22.7,18.6,30.39,WNW,292,3.5,3.5,84,0.00,CLR,,0.00,WeatherDisplay:10.37,2013-01-18 06:49:00,
2013-01-18 00:54:00,22.6,18.5,30.39,WNW,292,3.5,3.5,84,0.00,CLR,,0.00,WeatherDisplay:10.37,2013-01-18 06:54:00,
2013-01-18 00:59:00,22.7,18.6,30.40,WNW,292,3.0,3.0,84,0.00,CLR,,0.00,WeatherDisplay:10.37,2013-01-18 06:59:00,
2013-01-18 01:04:00,22.7,18.6,30.40,WNW,292,4.6,4.6,84,0.00,CLR,,0.00,WeatherDisplay:10.37,2013-01-18 07:04:00,
2013-01-18 01:09:00,22.8,18.7,30.40,WNW,292,3.5,3.5,84,0.00,CLR,,0.00,WeatherDisplay:10.37,2013-01-18 07:09:00,
2013-01-18 01:14:00,22.9,18.8,30.40,WNW,290,3.5,3.5,84,0.00,CLR,,0.00,WeatherDisplay:10.37,2013-01-18 07:14:00,
2013-01-18 01:19:00,22.8,18.7,30.40,WNW,291,4.6,4.6,84,0.00,CLR,,0.00,WeatherDisplay:10.37,2013-01-18 07:19:00,
2013-01-18 01:24:00,22.8,18.7,30.40,WNW,291,3.0,3.0,84,0.00,CLR,,0.00,WeatherDisplay:10.37,2013-01-18 07:24:00,
2013-01-18 01:29:00,22.8,18.7,30.40,WNW,290,3.5,3.5,84,0.00,CLR,,0.00,WeatherDisplay:10.37,2013-01-18 07:29:00,
2013-01-18 01:34:00,22.9,18.8,30.40,WNW,291,3.5,3.5,84,0.00,CLR,,0.00,WeatherDisplay:10.37,2013-01-18 07:34:00,
2013-01-18 01:39:00,22.9,19.1,30.41,WNW,290,2.3,2.3,85,0.00,CLR,,0.00,WeatherDisplay:10.37,2013-01-18 07:39:00,
2013-01-18 01:44:00,23.0,19.2,30.41,WNW,290,3.5,3.5,85,0.00,CLR,,0.00,WeatherDisplay:10.37,2013-01-18 07:44:00,
2013-01-18 01:49:00,22.9,19.1,30.42,WNW,290,3.5,3.5,85,0.00,CLR,,0.00,WeatherDisplay:10.37,2013-01-18 07:49:00,
2013-01-18 01:54:00,22.7,18.9,30.41,WNW,288,5.8,5.8,85,0.00,CLR,,0.00,WeatherDisplay:10.37,2013-01-18 07:54:00,
2013-01-18 01:59:00,22.2,18.4,30.40,West,281,7.0,7.0,85,0.00,CLR,,0.00,WeatherDisplay:10.37,2013-01-18 07:59:00,
2013-01-18 02:04:00,22.2,18.7,30.41,West,275,4.6,4.6,86,0.00,CLR,,0.00,WeatherDisplay:10.37,2013-01-18 08:04:00,
2013-01-18 02:09:00,22.4,18.8,30.41,West,273,4.6,4.6,86,0.00,CLR,,0.00,WeatherDisplay:10.37,2013-01-18 08:09:00,
2013-01-18 02:14:00,22.5,18.9,30.41,West,273,3.5,3.5,86,0.00,CLR,,0.00,WeatherDisplay:10.37,2013-01-18 08:14:00,
2013-01-18 02:19:00,22.6,19.0,30.41,West,273,3.5,3.5,86,0.00,CLR,,0.00,WeatherDisplay:10.37,2013-01-18 08:19:00,
2013-01-18 02:24:00,22.7,19.1,30.41,West,272,3.5,3.5,86,0.00,CLR,,0.00,WeatherDisplay:10.37,2013-01-18 08:24:00,
2013-01-18 02:29:00,22.7,19.1,30.41,West,273,2.3,2.3,86,0.00,CLR,,0.00,WeatherDisplay:10.37,2013-01-18 08:29:00,
2013-01-18 02:34:00,22.7,19.1,30.40,West,273,3.5,3.5,86,0.00,CLR,,0.00,WeatherDisplay:10.37,2013-01-18 08:34:00,
2013-01-18 02:39:00,22.6,18.8,30.40,West,273,2.3,2.3,85,0.00,CLR,,0.00,WeatherDisplay:10.37,2013-01-18 08:39:00,
2013-01-18 02:44:00,22.5,18.7,30.40,West,273,3.5,3.5,85,0.00,CLR,,0.00,WeatherDisplay:10.37,2013-01-18 08:44:00,
2013-01-18 02:49:00,22.5,18.9,30.40,West,273,3.5,3.5,86,0.00,CLR,,0.00,WeatherDisplay:10.37,2013-01-18 08:49:00,
2013-01-18 02:54:00,22.4,18.8,30.40,West,273,3.5,3.5,86,0.00,CLR,,0.00,WeatherDisplay:10.37,2013-01-18 08:54:00,
2013-01-18 03:00:00,22.3,18.7,30.40,West,273,1.2,1.2,86,0.00,CLR,,0.00,WeatherDisplay:10.37,2013-01-18 09:00:00,
2013-01-18 03:05:00,22.2,18.7,30.40,West,272,3.5,3.5,86,0.00,CLR,,0.00,WeatherDisplay:10.37,2013-01-18 09:05:00,
2013-01-18 03:10:00,22.1,18.6,30.40,West,273,3.5,3.5,86,0.00,CLR,,0.00,WeatherDisplay:10.37,2013-01-18 09:10:00,
2013-01-18 03:15:00,22.0,18.5,30.40,West,273,3.5,3.5,86,0.00,CLR,,0.00,WeatherDisplay:10.37,2013-01-18 09:15:00,
2013-01-18 03:20:00,22.0,18.7,30.41,West,273,3.5,3.5,87,0.00,CLR,,0.00,WeatherDisplay:10.37,2013-01-18 09:20:00,
2013-01-18 03:25:00,22.0,18.7,30.40,West,266,5.8,5.8,87,0.00,CLR,,0.00,WeatherDisplay:10.37,2013-01-18 09:25:00,
2013-01-18 03:30:00,22.0,18.7,30.41,West,265,4.6,4.6,87,0.00,CLR,,0.00,WeatherDisplay:10.37,2013-01-18 09:30:00,
2013-01-18 03:35:00,22.1,18.8,30.40,West,263,5.0,5.0,87,0.00,CLR,,0.00,WeatherDisplay:10.37,2013-01-18 09:35:00,
2013-01-18 03:40:00,22.2,18.9,30.39,West,260,5.8,5.8,87,0.00,CLR,,0.00,WeatherDisplay:10.37,2013-01-18 09:40:00,
2013-01-18 03:45:00,22.2,18.9,30.40,WSW,257,6.9,6.9,87,0.00,CLR,,0.00,WeatherDisplay:10.37,2013-01-18 09:45:00,
2013-01-18 03:50:00,22.3,19.0,30.41,WSW,256,6.0,6.0,87,0.00,CLR,,0.00,WeatherDisplay:10.37,2013-01-18 09:50:00,
2013-01-18 03:55:00,22.3,19.0,30.41,WSW,256,3.5,3.5,87,0.00,CLR,,0.00,WeatherDisplay:10.37,2013-01-18 09:55:00,
2013-01-18 04:00:00,22.4,19.1,30.41,WSW,254,4.6,4.6,87,0.00,CLR,,0.00,WeatherDisplay:10.37,2013-01-18 10:00:00,
2013-01-18 04:05:00,22.4,19.1,30.41,WSW,255,4.0,4.0,87,0.00,CLR,,0.00,WeatherDisplay:10.37,2013-01-18 10:05:00,
2013-01-18 04:10:00,22.4,19.1,30.41,WSW,254,5.8,5.8,87,0.00,CLR,,0.00,WeatherDisplay:10.37,2013-01-18 10:10:00,
2013-01-18 04:15:00,22.4,19.1,30.40,WSW,254,4.6,4.6,87,0.00,CLR,,0.00,WeatherDisplay:10.37,2013-01-18 10:15:00,
2013-01-18 04:20:00,22.5,19.2,30.40,WSW,254,4.0,4.0,87,0.00,CLR,,0.00,WeatherDisplay:10.37,2013-01-18 10:20:00,
2013-01-18 04:25:00,22.4,19.1,30.40,WSW,254,4.6,4.6,87,0.00,CLR,,0.00,WeatherDisplay:10.37,2013-01-18 10:25:00,
2013-01-18 04:30:00,22.4,19.1,30.41,WSW,253,4.6,4.6,87,0.00,CLR,,0.00,WeatherDisplay:10.37,2013-01-18 10:30:00,
2013-01-18 04:35:00,22.5,19.2,30.41,WSW,248,5.8,5.8,87,0.00,CLR,,0.00,WeatherDisplay:10.37,2013-01-18 10:35:00,
2013-01-18 04:40:00,22.6,19.3,30.40,WSW,246,6.9,6.9,87,0.00,CLR,,0.00,WeatherDisplay:10.37,2013-01-18 10:40:00,
2013-01-18 04:45:00,22.7,19.4,30.40,WSW,246,3.5,3.5,87,0.00,CLR,,0.00,WeatherDisplay:10.37,2013-01-18 10:45:00,
2013-01-18 04:50:00,22.8,19.5,30.40,WSW,245,5.8,5.8,87,0.00,CLR,,0.00,WeatherDisplay:10.37,2013-01-18 10:50:00,
2013-01-18 04:55:00,22.9,19.6,30.40,WSW,245,5.8,5.8,87,0.00,CLR,,0.00,WeatherDisplay:10.37,2013-01-18 10:55:00,
2013-01-18 05:00:00,23.0,19.7,30.39,WSW,242,5.8,5.8,87,0.00,CLR,,0.00,WeatherDisplay:10.37,2013-01-18 11:00:00,
2013-01-18 05:05:00,23.1,19.8,30.39,WSW,242,4.6,4.6,87,0.00,CLR,,0.00,WeatherDisplay:10.37,2013-01-18 11:05:00,
2013-01-18 05:10:00,23.3,20.0,30.39,WSW,241,5.8,5.8,87,0.00,CLR,,0.00,WeatherDisplay:10.37,2013-01-18 11:10:00,
2013-01-18 05:15:00,23.3,20.0,30.38,WSW,238,6.0,6.0,87,0.00,CLR,,0.00,WeatherDisplay:10.37,2013-01-18 11:15:00,
2013-01-18 05:20:00,23.4,20.1,30.39,WSW,238,5.8,5.8,87,0.00,CLR,,0.00,WeatherDisplay:10.37,2013-01-18 11:20:00,
2013-01-18 05:25:00,23.5,20.2,30.39,WSW,238,5.8,5.8,87,0.00,CLR,,0.00,WeatherDisplay:10.37,2013-01-18 11:25:00,
2013-01-18 05:30:00,23.6,20.3,30.38,SW,236,5.8,5.8,87,0.00,CLR,,0.00,WeatherDisplay:10.37,2013-01-18 11:30:00,
2013-01-18 05:35:00,23.8,20.5,30.39,SW,234,4.6,4.6,87,0.00,CLR,,0.00,WeatherDisplay:10.37,2013-01-18 11:35:00,
2013-01-18 05:40:00,23.8,20.5,30.39,SW,232,2.3,2.3,87,0.00,CLR,,0.00,WeatherDisplay:10.37,2013-01-18 11:40:00,
2013-01-18 05:45:00,23.9,20.6,30.39,SW,229,10.4,10.4,87,0.00,CLR,,0.00,WeatherDisplay:10.37,2013-01-18 11:45:00,
2013-01-18 05:50:00,23.9,20.6,30.39,SW,228,6.9,6.9,87,0.00,CLR,,0.00,WeatherDisplay:10.37,2013-01-18 11:50:00,
2013-01-18 05:55:00,23.9,20.3,30.39,SW,227,5.8,5.8,86,0.00,CLR,,0.00,WeatherDisplay:10.37,2013-01-18 11:55:00,
2013-01-18 06:00:00,23.9,20.3,30.39,SW,228,9.2,9.2,86,0.00,CLR,,0.00,WeatherDisplay:10.37,2013-01-18 12:00:00,
2013-01-18 06:05:00,24.0,20.4,30.39,SW,229,5.0,5.0,86,0.00,CLR,,0.00,WeatherDisplay:10.37,2013-01-18 12:05:00,
2013-01-18 06:10:00,24.0,20.4,30.39,SW,229,4.0,4.0,86,0.00,CLR,,0.00,WeatherDisplay:10.37,2013-01-18 12:10:00,
2013-01-18 06:15:00,23.9,20.6,30.38,SW,227,6.0,6.0,87,0.00,CLR,,0.00,WeatherDisplay:10.37,2013-01-18 12:15:00,
2013-01-18 06:20:00,24.0,20.4,30.39,SW,223,6.9,6.9,86,0.00,CLR,,0.00,WeatherDisplay:10.37,2013-01-18 12:20:00,
2013-01-18 06:25:00,24.0,20.4,30.38,SW,219,6.9,6.9,86,0.00,CLR,,0.00,WeatherDisplay:10.37,2013-01-18 12:25:00,
2013-01-18 06:30:00,24.0,20.4,30.39,SW,219,5.0,5.0,86,0.00,CLR,,0.00,WeatherDisplay:10.37,2013-01-18 12:30:00,
2013-01-18 06:35:00,24.0,20.4,30.39,SW,218,6.0,6.0,86,0.00,CLR,,0.00,WeatherDisplay:10.37,2013-01-18 12:35:00,
2013-01-18 06:40:00,24.0,20.4,30.39,SW,219,4.6,4.6,86,0.00,CLR,,0.00,WeatherDisplay:10.37,2013-01-18 12:40:00,
2013-01-18 06:47:00,24.1,20.5,30.39,SW,219,6.0,6.0,86,0.00,CLR,,0.00,WeatherDisplay:10.37,2013-01-18 12:47:00,
2013-01-18 06:52:00,24.2,20.6,30.39,SW,217,6.9,6.9,86,0.00,CLR,,0.00,WeatherDisplay:10.37,2013-01-18 12:52:00,
2013-01-18 06:57:00,24.2,20.6,30.39,SW,215,5.8,5.8,86,0.00,CLR,,0.00,WeatherDisplay:10.37,2013-01-18 12:57:00,
2013-01-18 07:02:00,24.3,20.4,30.38,SSW,207,11.5,11.5,85,0.00,CLR,,0.00,WeatherDisplay:10.37,2013-01-18 13:02:00,
2013-01-18 07:07:00,24.5,20.6,30.38,SSW,202,11.5,11.5,85,0.00,CLR,,0.00,WeatherDisplay:10.37,2013-01-18 13:07:00,
2013-01-18 07:12:00,24.5,20.6,30.38,SSW,204,9.2,9.2,85,0.00,CLR,,0.00,WeatherDisplay:10.37,2013-01-18 13:12:00,
2013-01-18 07:17:00,24.6,20.5,30.38,SSW,206,5.8,6.5,84,0.00,CLR,,0.00,WeatherDisplay:10.37,2013-01-18 13:17:00,
2013-01-18 07:22:00,24.7,20.6,30.38,SSW,196,11.5,11.5,84,0.00,CLR,,0.00,WeatherDisplay:10.37,2013-01-18 13:22:00,
2013-01-18 07:27:00,24.8,20.7,30.38,South,187,10.4,10.4,84,0.00,CLR,,0.00,WeatherDisplay:10.37,2013-01-18 13:27:00,
2013-01-18 07:32:00,24.9,20.8,30.38,SSW,204,13.8,13.8,84,0.00,CLR,,0.00,WeatherDisplay:10.37,2013-01-18 13:32:00,
2013-01-18 07:37:00,24.9,20.5,30.38,SSW,210,12.0,12.0,83,0.00,CLR,,0.00,WeatherDisplay:10.37,2013-01-18 13:37:00,
2013-01-18 07:42:00,25.1,20.7,30.39,SSW,200,11.5,11.5,83,0.00,CLR,,0.00,WeatherDisplay:10.37,2013-01-18 13:42:00,
2013-01-18 07:47:00,25.2,20.8,30.39,SSW,209,12.7,12.7,83,0.00,CLR,,0.00,WeatherDisplay:10.37,2013-01-18 13:47:00,
2013-01-18 07:52:00,25.3,20.9,30.38,SSE,164,12.7,12.7,83,0.00,CLR,,0.00,WeatherDisplay:10.37,2013-01-18 13:52:00,
2013-01-18 07:57:00,25.6,20.9,30.38,SSW,192,10.4,10.4,82,0.00,CLR,,0.00,WeatherDisplay:10.37,2013-01-18 13:57:00,
2013-01-18 08:02:00,25.7,21.0,30.38,SSW,202,11.5,11.5,82,0.00,CLR,,0.00,WeatherDisplay:10.37,2013-01-18 14:02:00,
2013-01-18 08:07:00,25.9,21.2,30.39,SSW,206,13.8,13.8,82,0.00,CLR,,0.00,WeatherDisplay:10.37,2013-01-18 14:07:00,
2013-01-18 08:12:00,26.1,21.4,30.39,SSW,192,11.5,11.5,82,0.00,CLR,,0.00,WeatherDisplay:10.37,2013-01-18 14:12:00,
2013-01-18 08:17:00,26.3,21.3,30.39,SSW,206,15.0,15.0,81,0.00,CLR,,0.00,WeatherDisplay:10.37,2013-01-18 14:17:00,
2013-01-18 08:22:00,26.6,21.6,30.39,SSW,192,13.8,13.8,81,0.00,CLR,,0.00,WeatherDisplay:10.37,2013-01-18 14:22:00,
2013-01-18 08:28:00,26.7,21.7,30.39,SSW,205,11.5,11.5,81,0.00,CLR,,0.00,WeatherDisplay:10.37,2013-01-18 14:28:00,
2013-01-18 08:33:00,27.0,21.7,30.39,South,175,11.5,11.5,80,0.00,CLR,,0.00,WeatherDisplay:10.37,2013-01-18 14:33:00,
2013-01-18 08:38:00,27.3,21.9,30.39,South,178,8.1,8.1,80,0.00,CLR,,0.00,WeatherDisplay:10.37,2013-01-18 14:38:00,
2013-01-18 08:43:00,27.6,22.2,30.40,SSW,194,11.5,11.5,80,0.00,CLR,,0.00,WeatherDisplay:10.37,2013-01-18 14:43:00,
2013-01-18 08:48:00,27.8,22.4,30.40,South,175,12.0,12.0,80,0.00,CLR,,0.00,WeatherDisplay:10.37,2013-01-18 14:48:00,
2013-01-18 08:53:00,28.1,22.7,30.40,SSW,201,11.5,11.5,80,0.00,CLR,,0.00,WeatherDisplay:10.37,2013-01-18 14:53:00,
2013-01-18 08:58:00,28.6,23.2,30.39,SSW,199,11.5,11.5,80,0.00,CLR,,0.00,WeatherDisplay:10.37,2013-01-18 14:58:00,
2013-01-18 09:03:00,28.9,22.9,30.40,SE,130,16.1,16.1,78,0.00,CLR,,0.00,WeatherDisplay:10.37,2013-01-18 15:03:00,
2013-01-18 09:08:00,29.2,23.2,30.39,SSW,211,19.6,19.6,78,0.00,CLR,,0.00,WeatherDisplay:10.37,2013-01-18 15:08:00,
2013-01-18 09:13:00,29.6,23.6,30.39,SSW,207,17.0,17.0,78,0.00,CLR,,0.00,WeatherDisplay:10.37,2013-01-18 15:13:00,
2013-01-18 09:18:00,29.9,23.6,30.39,SSW,196,19.6,19.6,77,0.00,CLR,,0.00,WeatherDisplay:10.37,2013-01-18 15:18:00,
2013-01-18 09:23:00,30.0,23.7,30.39,SSW,201,19.6,19.6,77,0.00,CLR,,0.00,WeatherDisplay:10.37,2013-01-18 15:23:00,
2013-01-18 09:28:00,30.3,23.6,30.39,SSW,192,19.6,19.6,76,0.00,CLR,,0.00,WeatherDisplay:10.37,2013-01-18 15:28:00,
2013-01-18 09:33:00,30.5,23.8,30.38,South,189,17.3,17.3,76,0.00,CLR,,0.00,WeatherDisplay:10.37,2013-01-18 15:33:00,
2013-01-18 09:38:00,30.7,23.7,30.38,SSW,192,17.3,17.3,75,0.00,CLR,,0.00,WeatherDisplay:10.37,2013-01-18 15:38:00,
2013-01-18 09:43:00,30.8,23.8,30.38,SSW,202,20.7,20.7,75,0.00,CLR,,0.00,WeatherDisplay:10.37,2013-01-18 15:43:00,
2013-01-18 09:48:00,31.1,24.1,30.38,SSW,202,18.4,18.4,75,0.00,CLR,,0.00,WeatherDisplay:10.37,2013-01-18 15:48:00,
2013-01-18 09:53:00,31.5,24.2,30.38,SSW,205,25.3,25.3,74,0.00,CLR,,0.00,WeatherDisplay:10.37,2013-01-18 15:53:00,
2013-01-18 09:58:00,31.4,23.7,30.38,South,186,20.7,20.7,73,0.00,CLR,,0.00,WeatherDisplay:10.37,2013-01-18 15:58:00,
2013-01-18 10:03:00,31.6,24.3,30.38,SSW,213,22.0,22.0,74,0.00,CLR,,0.00,WeatherDisplay:10.37,2013-01-18 16:03:00,
2013-01-18 10:08:00,31.8,24.5,30.38,SSW,205,13.0,13.0,74,0.00,CLR,,0.00,WeatherDisplay:10.37,2013-01-18 16:08:00,
2013-01-18 10:13:00,32.3,24.6,30.37,SSW,200,18.4,18.4,73,0.00,CLR,,0.00,WeatherDisplay:10.37,2013-01-18 16:13:00,
2013-01-18 10:18:00,32.3,24.3,30.37,SSW,198,21.9,21.9,72,0.00,CLR,,0.00,WeatherDisplay:10.37,2013-01-18 16:18:00,
2013-01-18 10:23:00,32.1,23.8,30.37,SSW,198,24.2,24.2,71,0.00,CLR,,0.00,WeatherDisplay:10.37,2013-01-18 16:23:00,
2013-01-18 10:28:00,32.3,23.6,30.37,WSW,245,26.5,26.5,70,0.00,CLR,,0.00,WeatherDisplay:10.37,2013-01-18 16:28:00,
2013-01-18 10:33:00,32.4,23.7,30.37,South,188,32.2,32.2,70,0.00,CLR,,0.00,WeatherDisplay:10.37,2013-01-18 16:33:00,
2013-01-18 10:38:00,32.6,23.6,30.36,SSW,195,28.8,28.8,69,0.00,CLR,,0.00,WeatherDisplay:10.37,2013-01-18 16:38:00,
2013-01-18 10:43:00,32.6,23.6,30.36,SW,225,21.9,21.9,69,0.00,CLR,,0.00,WeatherDisplay:10.37,2013-01-18 16:43:00,
2013-01-18 10:48:00,32.7,22.9,30.36,SSW,209,32.2,32.2,67,0.00,CLR,,0.00,WeatherDisplay:10.37,2013-01-18 16:48:00,
2013-01-18 10:53:00,33.2,23.4,30.36,South,190,29.9,29.9,67,0.00,CLR,,0.00,WeatherDisplay:10.37,2013-01-18 16:53:00,
2013-01-18 10:58:00,33.2,23.4,30.35,SW,214,20.7,20.7,67,0.00,CLR,,0.00,WeatherDisplay:10.37,2013-01-18 16:58:00,
2013-01-18 11:03:00,33.1,23.0,30.35,SSW,198,26.5,26.5,66,0.00,CLR,,0.00,WeatherDisplay:10.37,2013-01-18 17:03:00,
2013-01-18 11:08:00,33.3,23.5,30.34,SSW,192,26.5,26.5,67,0.00,CLR,,0.00,WeatherDisplay:10.37,2013-01-18 17:08:00,
2013-01-18 11:13:00,33.4,23.3,30.34,SSW,204,26.5,26.5,66,0.00,CLR,,0.00,WeatherDisplay:10.37,2013-01-18 17:13:00,
2013-01-18 11:18:00,33.8,24.0,30.33,WSW,242,18.4,18.4,67,0.00,CLR,,0.00,WeatherDisplay:10.37,2013-01-18 17:18:00,
2013-01-18 11:23:00,33.9,23.7,30.32,SSW,210,25.3,25.3,66,0.00,CLR,,0.00,WeatherDisplay:10.37,2013-01-18 17:23:00,
2013-01-18 11:28:00,33.8,23.6,30.31,South,188,31.1,31.1,66,0.00,CLR,,0.00,WeatherDisplay:10.37,2013-01-18 17:28:00,
2013-01-18 11:33:00,34.0,23.5,30.31,SW,215,32.2,32.2,65,0.00,CLR,,0.00,WeatherDisplay:10.37,2013-01-18 17:33:00,
2013-01-18 11:38:00,34.2,24.0,30.30,SSW,192,20.7,20.7,66,0.00,CLR,,0.00,WeatherDisplay:10.37,2013-01-18 17:38:00,
2013-01-18 11:43:00,34.2,23.7,30.30,South,187,26.5,26.5,65,0.00,CLR,,0.00,WeatherDisplay:10.37,2013-01-18 17:43:00,
2013-01-18 11:48:00,34.1,23.6,30.30,SSE,159,24.2,24.2,65,0.00,CLR,,0.00,WeatherDisplay:10.37,2013-01-18 17:48:00,
2013-01-18 11:53:00,34.2,23.7,30.29,WSW,240,28.8,28.8,65,0.00,CLR,,0.00,WeatherDisplay:10.37,2013-01-18 17:53:00,
2013-01-18 11:58:00,34.4,23.8,30.29,SSW,198,26.5,26.5,65,0.00,CLR,,0.00,WeatherDisplay:10.37,2013-01-18 17:58:00,
2013-01-18 12:03:00,34.5,23.6,30.28,SSW,207,25.3,25.3,64,0.00,CLR,,0.00,WeatherDisplay:10.37,2013-01-18 18:03:00,
2013-01-18 12:08:00,34.9,23.9,30.28,SSW,202,23.0,23.0,64,0.00,CLR,,0.00,WeatherDisplay:10.37,2013-01-18 18:08:00,
2013-01-18 12:13:00,35.0,24.0,30.27,South,184,28.8,28.8,64,0.00,CLR,,0.00,WeatherDisplay:10.37,2013-01-18 18:13:00,
2013-01-18 12:18:00,35.3,24.7,30.27,SSW,207,18.4,18.4,65,0.00,CLR,,0.00,WeatherDisplay:10.37,2013-01-18 18:18:00,
2013-01-18 12:24:00,35.5,24.1,30.26,SSW,204,35.7,35.7,63,0.00,CLR,,0.00,WeatherDisplay:10.37,2013-01-18 18:24:00,
2013-01-18 12:29:00,35.3,24.7,30.25,South,169,27.6,27.6,65,0.00,CLR,,0.00,WeatherDisplay:10.37,2013-01-18 18:29:00,
2013-01-18 12:34:00,35.4,24.4,30.25,SSW,207,33.0,33.0,64,0.00,CLR,,0.00,WeatherDisplay:10.37,2013-01-18 18:34:00,
2013-01-18 12:39:00,35.4,24.4,30.25,SSW,193,26.0,26.0,64,0.00,CLR,,0.00,WeatherDisplay:10.37,2013-01-18 18:39:00,
2013-01-18 12:44:00,35.9,24.5,30.25,SSW,197,31.0,31.0,63,0.00,CLR,,0.00,WeatherDisplay:10.37,2013-01-18 18:44:00,
2013-01-18 12:49:00,36.1,24.3,30.25,SSE,166,35.7,35.7,62,0.00,CLR,,0.00,WeatherDisplay:10.37,2013-01-18 18:49:00,
2013-01-18 12:54:00,36.3,24.5,30.25,SSW,205,25.3,25.3,62,0.00,CLR,,0.00,WeatherDisplay:10.37,2013-01-18 18:54:00,
2013-01-18 12:59:00,36.5,24.7,30.24,SSW,199,19.6,19.6,62,0.00,CLR,,0.00,WeatherDisplay:10.37,2013-01-18 18:59:00,
2013-01-18 13:04:00,36.7,24.5,30.24,SSW,195,35.7,35.7,61,0.00,CLR,,0.00,WeatherDisplay:10.37,2013-01-18 19:04:00,
2013-01-18 13:09:00,36.6,24.8,30.24,SSW,197,25.3,25.3,62,0.00,CLR,,0.00,WeatherDisplay:10.37,2013-01-18 19:09:00,
2013-01-18 13:14:00,37.0,24.8,30.23,SSE,163,33.4,33.4,61,0.00,CLR,,0.00,WeatherDisplay:10.37,2013-01-18 19:14:00,
2013-01-18 13:19:00,36.9,24.7,30.23,South,182,26.5,26.5,61,0.00,CLR,,0.00,WeatherDisplay:10.37,2013-01-18 19:19:00,
2013-01-18 13:24:00,37.0,24.4,30.22,South,175,33.4,33.4,60,0.00,CLR,,0.00,WeatherDisplay:10.37,2013-01-18 19:24:00,
2013-01-18 13:29:00,37.0,24.8,30.22,SSW,195,24.2,24.2,61,0.00,CLR,,0.00,WeatherDisplay:10.37,2013-01-18 19:29:00,
2013-01-18 13:34:00,37.1,24.5,30.22,South,190,32.2,32.2,60,0.00,CLR,,0.00,WeatherDisplay:10.37,2013-01-18 19:34:00,
2013-01-18 13:39:00,37.0,24.8,30.22,SSW,194,24.2,24.2,61,0.00,CLR,,0.00,WeatherDisplay:10.37,2013-01-18 19:39:00,
2013-01-18 13:44:00,37.2,25.0,30.22,South,179,24.2,24.2,61,0.00,CLR,,0.00,WeatherDisplay:10.37,2013-01-18 19:44:00,
2013-01-18 13:49:00,37.4,24.8,30.22,SSE,160,23.0,23.0,60,0.00,CLR,,0.00,WeatherDisplay:10.37,2013-01-18 19:49:00,
2013-01-18 13:54:00,37.7,24.6,30.21,SW,217,31.1,31.1,59,0.00,CLR,,0.00,WeatherDisplay:10.37,2013-01-18 19:54:00,
2013-01-18 13:59:00,37.7,25.1,30.21,WSW,250,24.2,24.2,60,0.00,CLR,,0.00,WeatherDisplay:10.37,2013-01-18 19:59:00,
2013-01-18 14:04:00,37.8,25.1,30.20,SSE,162,20.7,20.7,60,0.00,CLR,,0.00,WeatherDisplay:10.37,2013-01-18 20:04:00,
2013-01-18 14:09:00,38.0,24.9,30.20,South,186,36.8,36.8,59,0.00,CLR,,0.00,WeatherDisplay:10.37,2013-01-18 20:09:00,
2013-01-18 14:14:00,38.0,24.9,30.19,South,185,28.8,28.8,59,0.00,CLR,,0.00,WeatherDisplay:10.37,2013-01-18 20:14:00,
2013-01-18 14:19:00,38.0,24.5,30.18,SSW,193,32.2,32.2,58,0.00,CLR,,0.00,WeatherDisplay:10.37,2013-01-18 20:19:00,
2013-01-18 14:24:00,38.0,24.5,30.18,South,171,36.8,36.8,58,0.00,,,0.00,WeatherDisplay:10.37,2013-01-18 20:24:00,
2013-01-18 14:29:00,38.3,25.2,30.18,South,184,26.5,26.5,59,0.00,CLR,,0.00,WeatherDisplay:10.37,2013-01-18 20:29:00,
2013-01-18 14:34:00,38.6,25.9,30.18,SSW,205,21.9,21.9,60,0.00,CLR,,0.00,WeatherDisplay:10.37,2013-01-18 20:34:00,
2013-01-18 14:39:00,39.0,25.9,30.17,SSW,211,18.0,18.0,59,0.00,CLR,,0.00,WeatherDisplay:10.37,2013-01-18 20:39:00,
2013-01-18 14:44:00,38.9,25.4,30.17,SW,214,24.2,24.2,58,0.00,CLR,,0.00,WeatherDisplay:10.37,2013-01-18 20:44:00,
2013-01-18 14:49:00,38.7,25.6,30.17,SSW,211,33.4,33.4,59,0.00,CLR,,0.00,WeatherDisplay:10.37,2013-01-18 20:49:00,
2013-01-18 14:54:00,38.7,26.0,30.17,South,191,29.9,29.9,60,0.00,CLR,,0.00,WeatherDisplay:10.37,2013-01-18 20:54:00,
2013-01-18 14:59:00,38.8,26.1,30.16,South,185,18.4,18.4,60,0.00,CLR,,0.00,WeatherDisplay:10.37,2013-01-18 20:59:00,
2013-01-18 15:04:00,39.1,26.0,30.16,South,174,33.4,33.4,59,0.00,CLR,,0.00,WeatherDisplay:10.37,2013-01-18 21:04:00,
2013-01-18 15:09:00,38.9,25.8,30.16,SSW,200,23.0,23.0,59,0.00,CLR,,0.00,WeatherDisplay:10.37,2013-01-18 21:09:00,
2013-01-18 15:14:00,39.2,26.9,30.15,South,190,19.6,19.6,61,0.00,CLR,,0.00,WeatherDisplay:10.37,2013-01-18 21:14:00,
2013-01-18 15:19:00,39.2,26.5,30.15,SSW,202,28.8,28.8,60,0.00,CLR,,0.00,WeatherDisplay:10.37,2013-01-18 21:19:00,
2013-01-18 15:24:00,39.1,26.8,30.14,SSE,164,26.0,26.0,61,0.00,CLR,,0.00,WeatherDisplay:10.37,2013-01-18 21:24:00,
2013-01-18 15:29:00,39.3,27.0,30.14,South,177,26.5,26.5,61,0.00,CLR,,0.00,WeatherDisplay:10.37,2013-01-18 21:29:00,
2013-01-18 15:34:00,39.2,26.9,30.14,SSW,199,24.2,24.2,61,0.00,CLR,,0.00,WeatherDisplay:10.37,2013-01-18 21:34:00,
2013-01-18 15:39:00,39.2,26.9,30.13,South,180,29.9,29.9,61,0.00,CLR,,0.00,WeatherDisplay:10.37,2013-01-18 21:39:00,
2013-01-18 15:44:00,39.4,27.5,30.13,SSW,193,15.0,15.0,62,0.00,CLR,,0.00,WeatherDisplay:10.37,2013-01-18 21:44:00,
2013-01-18 15:49:00,39.5,27.5,30.13,South,191,24.0,24.0,62,0.00,CLR,,0.00,WeatherDisplay:10.37,2013-01-18 21:49:00,
2013-01-18 15:54:00,39.3,27.4,30.12,SSW,196,19.6,19.6,62,0.00,CLR,,0.00,WeatherDisplay:10.37,2013-01-18 21:54:00,
2013-01-18 15:59:00,39.2,27.7,30.12,SE,146,26.5,26.5,63,0.00,CLR,,0.00,WeatherDisplay:10.37,2013-01-18 21:59:00,
2013-01-18 16:04:00,39.1,27.6,30.12,SSW,192,24.2,24.2,63,0.00,CLR,,0.00,WeatherDisplay:10.37,2013-01-18 22:04:00,
2013-01-18 16:09:00,39.1,27.6,30.12,South,191,21.9,21.9,63,0.01,RA,,0.01,WeatherDisplay:10.37,2013-01-18 22:09:00,
2013-01-18 16:14:00,39.0,27.8,30.12,South,175,25.3,25.3,64,0.01,RA,,0.01,WeatherDisplay:10.37,2013-01-18 22:14:00,
2013-01-18 16:19:00,38.7,27.9,30.12,ESE,104,26.5,26.5,65,0.01,CLR,,0.01,WeatherDisplay:10.37,2013-01-18 22:19:00,
2013-01-18 16:24:00,38.6,27.8,30.12,SSW,211,19.0,19.0,65,0.01,CLR,,0.01,WeatherDisplay:10.37,2013-01-18 22:24:00,
2013-01-18 16:29:00,38.5,27.7,30.12,SSW,209,22.0,22.0,65,0.01,CLR,,0.01,WeatherDisplay:10.37,2013-01-18 22:29:00,
2013-01-18 16:34:00,38.3,27.6,30.12,South,186,21.9,21.9,65,0.01,CLR,,0.01,WeatherDisplay:10.37,2013-01-18 22:34:00,
2013-01-18 16:39:00,38.1,27.7,30.11,South,191,17.3,17.3,66,0.01,CLR,,0.01,WeatherDisplay:10.37,2013-01-18 22:39:00,
2013-01-18 16:44:00,37.9,27.5,30.11,South,191,25.3,25.3,66,0.01,CLR,,0.01,WeatherDisplay:10.37,2013-01-18 22:44:00,
2013-01-18 16:49:00,37.7,27.7,30.11,SSW,194,19.6,19.6,67,0.01,CLR,,0.01,WeatherDisplay:10.37,2013-01-18 22:49:00,
2013-01-18 16:54:00,37.5,27.5,30.11,SSE,163,19.0,19.0,67,0.01,CLR,,0.01,WeatherDisplay:10.37,2013-01-18 22:54:00,
2013-01-18 16:59:00,37.4,27.4,30.11,South,184,26.5,26.5,67,0.01,CLR,,0.01,WeatherDisplay:10.37,2013-01-18 22:59:00,
2013-01-18 17:04:00,37.3,27.3,30.11,South,186,23.0,23.0,67,0.01,CLR,,0.01,WeatherDisplay:10.37,2013-01-18 23:04:00,
2013-01-18 17:09:00,37.2,27.6,30.11,South,182,20.7,20.7,68,0.00,CLR,,0.01,WeatherDisplay:10.37,2013-01-18 23:09:00,
2013-01-18 17:14:00,37.1,27.5,30.11,SW,229,17.3,17.3,68,0.00,CLR,,0.01,WeatherDisplay:10.37,2013-01-18 23:14:00,
2013-01-18 17:19:00,36.9,27.7,30.11,South,172,23.0,23.0,69,0.00,CLR,,0.01,WeatherDisplay:10.37,2013-01-18 23:19:00,
2013-01-18 17:24:00,37.0,27.8,30.11,South,174,26.5,26.5,69,0.00,CLR,,0.01,WeatherDisplay:10.37,2013-01-18 23:24:00,
2013-01-18 17:29:00,37.0,27.8,30.11,SSW,200,34.5,34.5,69,0.00,CLR,,0.01,WeatherDisplay:10.37,2013-01-18 23:29:00,
2013-01-18 17:34:00,37.0,27.8,30.10,SSW,197,28.0,28.0,69,0.00,CLR,,0.01,WeatherDisplay:10.37,2013-01-18 23:34:00,
2013-01-18 17:39:00,37.1,27.9,30.10,South,190,19.6,19.6,69,0.00,CLR,,0.01,WeatherDisplay:10.37,2013-01-18 23:39:00,
2013-01-18 17:44:00,37.1,27.9,30.10,South,188,26.5,26.5,69,0.00,CLR,,0.01,WeatherDisplay:10.37,2013-01-18 23:44:00,
2013-01-18 17:49:00,37.1,27.9,30.10,SSW,193,26.5,26.5,69,0.00,CLR,,0.01,WeatherDisplay:10.37,2013-01-18 23:49:00,
2013-01-18 17:54:00,37.1,28.2,30.10,South,177,32.2,32.2,70,0.00,CLR,,0.01,WeatherDisplay:10.37,2013-01-18 23:54:00,
2013-01-18 17:59:00,36.9,28.0,30.10,South,184,23.0,23.0,70,0.00,CLR,,0.01,WeatherDisplay:10.37,2013-01-18 23:59:00,
2013-01-18 18:04:00,37.0,28.1,30.10,SE,128,20.7,20.7,70,0.00,CLR,,0.01,WeatherDisplay:10.37,2013-01-19 00:04:00,
2013-01-18 18:09:00,37.1,28.2,30.10,SSW,192,27.6,27.6,70,0.00,CLR,,0.01,WeatherDisplay:10.37,2013-01-19 00:09:00,
2013-01-18 18:14:00,37.6,28.7,30.09,South,187,36.8,36.8,70,0.00,CLR,,0.01,WeatherDisplay:10.37,2013-01-19 00:14:00,
2013-01-18 18:19:00,37.9,28.6,30.09,South,180,32.0,32.0,69,0.00,CLR,,0.01,WeatherDisplay:10.37,2013-01-19 00:19:00,
2013-01-18 18:24:00,37.8,28.5,30.09,South,191,32.2,32.2,69,0.00,,,0.01,WeatherDisplay:10.37,2013-01-19 00:24:00,
2013-01-18 18:29:00,37.8,28.5,30.09,SSW,194,33.4,33.4,69,0.00,,,0.01,WeatherDisplay:10.37,2013-01-19 00:29:00,
2013-01-18 18:34:00,37.6,28.7,30.08,SSW,205,24.2,24.2,70,0.00,CLR,,0.01,WeatherDisplay:10.37,2013-01-19 00:34:00,
2013-01-18 18:39:00,37.5,28.9,30.07,SSW,200,34.5,34.5,71,0.00,CLR,,0.01,WeatherDisplay:10.37,2013-01-19 00:39:00,
2013-01-18 18:44:00,37.5,28.9,30.08,SSW,198,29.9,29.9,71,0.00,CLR,,0.01,WeatherDisplay:10.37,2013-01-19 00:44:00,
2013-01-18 18:49:00,37.7,28.8,30.08,West,261,27.6,27.6,70,0.00,CLR,,0.01,WeatherDisplay:10.37,2013-01-19 00:49:00,
2013-01-18 18:54:00,37.8,28.9,30.07,South,190,32.2,32.2,70,0.00,CLR,,0.01,WeatherDisplay:10.37,2013-01-19 00:54:00,
2013-01-18 18:59:00,37.8,28.9,30.07,South,181,28.8,28.8,70,0.00,CLR,,0.01,WeatherDisplay:10.37,2013-01-19 00:59:00,
2013-01-18 19:04:00,38.0,29.1,30.07,South,174,36.8,36.8,70,0.00,CLR,,0.01,WeatherDisplay:10.37,2013-01-19 01:04:00,
2013-01-18 19:09:00,38.3,29.0,30.07,South,179,28.8,28.8,69,0.00,CLR,,0.01,WeatherDisplay:10.37,2013-01-19 01:09:00,
2013-01-18 19:14:00,38.4,29.1,30.07,SSW,207,24.2,24.2,69,0.00,CLR,,0.01,WeatherDisplay:10.37,2013-01-19 01:14:00,
2013-01-18 19:19:00,38.4,29.1,30.07,SW,224,36.8,36.8,69,0.00,CLR,,0.01,WeatherDisplay:10.37,2013-01-19 01:19:00,
2013-01-18 19:24:00,38.6,29.3,30.07,SW,216,32.2,32.2,69,0.00,CLR,,0.01,WeatherDisplay:10.37,2013-01-19 01:24:00,
2013-01-18 19:29:00,38.7,29.0,30.06,SSW,196,34.5,34.5,68,0.00,CLR,,0.01,WeatherDisplay:10.37,2013-01-19 01:29:00,
2013-01-18 19:34:00,38.8,29.1,30.06,South,179,32.2,32.2,68,0.00,CLR,,0.01,WeatherDisplay:10.37,2013-01-19 01:34:00,
2013-01-18 19:39:00,38.9,29.2,30.06,South,177,34.5,34.5,68,0.00,CLR,,0.01,WeatherDisplay:10.37,2013-01-19 01:39:00,
2013-01-18 19:44:00,39.0,29.3,30.06,ESE,117,27.6,27.6,68,0.00,CLR,,0.01,WeatherDisplay:10.37,2013-01-19 01:44:00,
2013-01-18 19:49:00,39.0,29.3,30.06,West,271,27.6,27.6,68,0.00,CLR,,0.01,WeatherDisplay:10.37,2013-01-19 01:49:00,
2013-01-18 19:54:00,39.0,29.3,30.06,South,183,26.5,26.5,68,0.00,CLR,,0.01,WeatherDisplay:10.37,2013-01-19 01:54:00,
2013-01-18 19:59:00,38.9,29.2,30.06,SSW,202,34.5,34.5,68,0.00,CLR,,0.01,WeatherDisplay:10.37,2013-01-19 01:59:00,
2013-01-18 20:04:00,38.9,29.2,30.05,SSW,192,25.3,25.3,68,0.00,CLR,,0.01,WeatherDisplay:10.37,2013-01-19 02:04:00,
2013-01-18 20:09:00,38.9,29.6,30.05,SSW,208,31.1,31.1,69,0.00,CLR,,0.01,WeatherDisplay:10.37,2013-01-19 02:09:00,
2013-01-18 20:14:00,38.8,29.5,30.05,SW,218,31.1,31.1,69,0.00,CLR,,0.01,WeatherDisplay:10.37,2013-01-19 02:14:00,
2013-01-18 20:19:00,38.7,29.4,30.05,South,171,33.4,33.4,69,0.00,CLR,,0.01,WeatherDisplay:10.37,2013-01-19 02:19:00,
2013-01-18 20:24:00,38.7,29.4,30.05,SSW,194,29.9,29.9,69,0.00,CLR,,0.01,WeatherDisplay:10.37,2013-01-19 02:24:00,
2013-01-18 20:29:00,38.7,29.4,30.05,SSW,198,32.2,32.2,69,0.00,CLR,,0.01,WeatherDisplay:10.37,2013-01-19 02:29:00,
2013-01-18 20:34:00,38.6,29.3,30.05,South,182,26.5,26.5,69,0.00,CLR,,0.01,WeatherDisplay:10.37,2013-01-19 02:34:00,
2013-01-18 20:39:00,38.6,29.3,30.05,SSW,209,26.5,26.5,69,0.00,CLR,,0.01,WeatherDisplay:10.37,2013-01-19 02:39:00,
2013-01-18 20:44:00,38.6,29.3,30.05,South,190,28.8,28.8,69,0.00,CLR,,0.01,WeatherDisplay:10.37,2013-01-19 02:44:00,
2013-01-18 20:49:00,38.6,29.7,30.05,South,174,20.7,20.7,70,0.00,CLR,,0.01,WeatherDisplay:10.37,2013-01-19 02:49:00,
2013-01-18 20:54:00,38.7,29.4,30.04,SSW,204,29.9,29.9,69,0.00,CLR,,0.01,WeatherDisplay:10.37,2013-01-19 02:54:00,
2013-01-18 20:59:00,38.8,29.5,30.04,SSW,206,38.0,38.0,69,0.00,CLR,,0.01,WeatherDisplay:10.37,2013-01-19 02:59:00,
2013-01-18 21:04:00,38.8,29.5,30.05,SSW,192,27.6,27.6,69,0.00,CLR,,0.01,WeatherDisplay:10.37,2013-01-19 03:04:00,
2013-01-18 21:09:00,38.7,29.4,30.05,SSW,205,26.5,26.5,69,0.00,CLR,,0.01,WeatherDisplay:10.37,2013-01-19 03:09:00,
2013-01-18 21:14:00,38.6,29.7,30.05,SSW,192,22.0,22.0,70,0.00,CLR,,0.01,WeatherDisplay:10.37,2013-01-19 03:14:00,
2013-01-18 21:19:00,38.6,29.7,30.05,SSW,201,27.6,27.6,70,0.00,CLR,,0.01,WeatherDisplay:10.37,2013-01-19 03:19:00,
2013-01-18 21:24:00,38.7,29.8,30.05,SSW,200,25.0,25.0,70,0.00,CLR,,0.01,WeatherDisplay:10.37,2013-01-19 03:24:00,
2013-01-18 21:29:00,38.7,29.8,30.05,SSW,208,19.6,19.6,70,0.00,CLR,,0.01,WeatherDisplay:10.37,2013-01-19 03:29:00,
2013-01-18 21:34:00,38.8,29.8,30.05,South,191,24.2,24.2,70,0.00,CLR,,0.01,WeatherDisplay:10.37,2013-01-19 03:34:00,
2013-01-18 21:39:00,38.8,29.8,30.05,SSW,195,26.0,26.0,70,0.00,CLR,,0.01,WeatherDisplay:10.37,2013-01-19 03:39:00,
2013-01-18 21:44:00,38.6,29.7,30.05,SSW,194,23.0,23.0,70,0.00,CLR,,0.01,WeatherDisplay:10.37,2013-01-19 03:44:00,
2013-01-18 21:49:00,38.6,29.7,30.05,South,186,24.0,24.0,70,0.00,CLR,,0.01,WeatherDisplay:10.37,2013-01-19 03:49:00,
2013-01-18 21:54:00,38.5,29.9,30.05,SW,224,20.7,20.7,71,0.00,CLR,,0.01,WeatherDisplay:10.37,2013-01-19 03:54:00,
2013-01-18 21:59:00,38.4,29.8,30.05,SSW,196,26.5,26.5,71,0.00,CLR,,0.01,WeatherDisplay:10.37,2013-01-19 03:59:00,
2013-01-18 22:04:00,38.3,29.7,30.05,SSW,211,28.8,28.8,71,0.00,CLR,,0.01,WeatherDisplay:10.37,2013-01-19 04:04:00,
2013-01-18 22:09:00,38.2,30.0,30.05,WSW,238,24.2,24.2,72,0.00,CLR,,0.01,WeatherDisplay:10.37,2013-01-19 04:09:00,
2013-01-18 22:14:00,38.0,29.8,30.05,SSW,201,26.5,26.5,72,0.00,CLR,,0.01,WeatherDisplay:10.37,2013-01-19 04:14:00,
2013-01-18 22:19:00,38.0,29.8,30.05,WNW,283,33.4,33.4,72,0.00,CLR,,0.01,WeatherDisplay:10.37,2013-01-19 04:19:00,
2013-01-18 22:24:00,38.0,29.8,30.04,SSW,213,33.4,33.4,72,0.00,CLR,,0.01,WeatherDisplay:10.37,2013-01-19 04:24:00,
2013-01-18 22:29:00,37.9,30.0,30.04,SSW,197,28.8,28.8,73,0.00,CLR,,0.01,WeatherDisplay:10.37,2013-01-19 04:29:00,
2013-01-18 22:34:00,37.8,29.9,30.04,SSW,205,28.0,28.0,73,0.00,CLR,,0.01,WeatherDisplay:10.37,2013-01-19 04:34:00,
2013-01-18 22:39:00,37.7,29.8,30.04,SSW,213,26.5,26.5,73,0.00,CLR,,0.01,WeatherDisplay:10.37,2013-01-19 04:39:00,
2013-01-18 22:44:00,37.7,30.2,30.04,SSW,201,25.3,25.3,74,0.00,CLR,,0.01,WeatherDisplay:10.37,2013-01-19 04:44:00,
2013-01-18 22:49:00,37.6,30.1,30.04,SW,228,24.2,24.2,74,0.00,CLR,,0.01,WeatherDisplay:10.37,2013-01-19 04:49:00,
2013-01-18 22:54:00,37.5,30.0,30.04,SSW,202,24.2,24.2,74,0.00,CLR,,0.01,WeatherDisplay:10.37,2013-01-19 04:54:00,
2013-01-18 22:59:00,37.5,30.0,30.04,SSW,194,26.5,26.5,74,0.00,CLR,,0.01,WeatherDisplay:10.37,2013-01-19 04:59:00,
2013-01-18 23:03:00,37.6,30.1,30.04,SSW,209,21.9,21.9,74,0.00,CLR,,0.01,WeatherDisplay:10.37,2013-01-19 05:03:00,
2013-01-18 23:04:00,37.6,30.1,30.05,SSW,198,23.0,23.0,74,0.00,CLR,,0.01,WeatherDisplay:10.37,2013-01-19 05:04:00,
2013-01-18 23:09:00,37.6,30.1,30.05,SSW,203,21.0,21.0,74,0.00,CLR,,0.01,WeatherDisplay:10.37,2013-01-19 05:09:00,
2013-01-18 23:14:00,37.6,30.4,30.04,SSW,202,28.8,28.8,75,0.00,CLR,,0.01,WeatherDisplay:10.37,2013-01-19 05:14:00,
2013-01-18 23:19:00,37.6,30.4,30.04,SW,223,24.2,24.2,75,0.00,CLR,,0.01,WeatherDisplay:10.37,2013-01-19 05:19:00,
2013-01-18 23:24:00,37.6,30.4,30.04,SSW,202,25.3,25.3,75,0.00,CLR,,0.01,WeatherDisplay:10.37,2013-01-19 05:24:00,
2013-01-18 23:29:00,37.4,30.2,30.04,SSW,192,26.5,26.5,75,0.00,CLR,,0.01,WeatherDisplay:10.37,2013-01-19 05:29:00,
2013-01-18 23:34:00,37.3,30.4,30.04,South,186,21.0,21.0,76,0.00,CLR,,0.01,WeatherDisplay:10.37,2013-01-19 05:34:00,
2013-01-18 23:39:00,37.3,30.4,30.04,SW,214,26.5,26.5,76,0.00,CLR,,0.01,WeatherDisplay:10.37,2013-01-19 05:39:00,
2013-01-18 23:44:00,37.1,30.2,30.04,SSW,195,24.2,24.2,76,0.00,CLR,,0.01,WeatherDisplay:10.37,2013-01-19 05:44:00,
2013-01-18 23:49:00,37.0,30.5,30.04,South,189,26.5,26.5,77,0.00,CLR,,0.01,WeatherDisplay:10.37,2013-01-19 05:49:00,
2013-01-18 23:54:00,36.9,30.4,30.04,SSW,210,21.9,21.9,77,0.00,CLR,,0.01,WeatherDisplay:10.37,2013-01-19 05:54:00,
2013-01-18 23:59:00,36.8,30.3,30.04,SW,216,20.7,20.7,77,0.00,CLR,,0.01,WeatherDisplay:10.37,2013-01-19 05:59:00,